Wind_Speed
9 6 5 7 7 8 7 7 5 3 5 6 5 4 4 4 3 2 1 1 1 1 2 2 1 2 3 4 6 6 2 5 5 2 2 5 7 9 10 11 12 9 6 7 10 10 9 8 11 13 13 13 13 15 15 14 14 13 13 11 11 11 10 10 11 11 13 15 15 16 18 18 16 15 14 14 15 16 17 15 12 10 12 15 15 16
8 6 6 7 7 8 7 7 6 5 5 5 5 4 2 3 3 1 1 2 1 0 1 1 2 5 5 5 7 7 1 1 2 1 2 5 8 9 10 11 10 7 7 11 12 11 10 8 10 13 14 14 14 15 15 15 15 14 14 13 12 12 11 10 10 10 11 13 14 14 14 16 14 13 14 15 14 14 15 13 9 10 13 15 15 17
6 6 6 7 6 6 5 5 7 6 4 4 3 3 3 3 1 1 1 1 1 0 1 1 5 6 5 4 6 8 5 4 4 5 4 1 5 8 10 10 9 8 9 13 13 13 11 9 10 11 13 15 15 16 16 16 16 16 15 14 13 12 11 10 9 9 11 11 12 11 11 13 14 13 13 13 12 12 13 11 9 11 13 13 15 16
6 6 7 8 7 8 6 5 7 6 3 3 3 4 3 2 1 3 3 1 0 1 1 3 6 5 4 2 4 8 6 5 5 9 10 7 1 4 8 8 9 9 11 13 14 14 13 11 11 11 13 15 17 17 17 16 16 16 16 15 13 11 10 11 10 8 9 9 10 10 10 11 12 13 13 13 12 12 13 13 12 13 14 14 14 15
6 6 9 9 8 9 7 6 7 6 4 1 3 5 4 3 2 2 2 1 1 2 2 4 5 4 4 3 3 6 5 5 6 10 12 12 8 2 3 6 8 9 11 13 14 15 14 12 12 12 12 15 18 18 18 17 16 16 17 16 14 12 11 12 12 10 10 10 10 11 10 9 9 11 14 13 10 11 13 14 14 14 14 15 14 14
4 5 12 11 7 9 9 7 7 7 5 2 4 5 5 7 4 1 1 0 2 2 1 2 3 3 3 3 2 4 4 4 7 11 13 14 12 9 4 1 4 6 8 10 12 13 13 12 12 12 13 16 18 19 19 18 16 16 17 17 16 14 13 12 12 11 11 11 12 12 11 9 8 11 15 14 9 9 11 12 13 15 15 15 14 14
2 5 9 10 9 9 8 7 6 6 6 3 4 5 5 6 5 3 3 1 2 2 1 1 2 3 1 2 3 5 4 4 8 11 13 14 14 12 8 5 3 1 2 4 7 8 9 11 11 12 14 16 18 18 19 18 18 17 17 17 16 15 14 13 11 10 11 10 11 12 12 11 9 10 14 14 12 12 13 13 14 14 16 16 15 15
4 7 6 7 9 7 6 6 6 7 6 3 3 7 8 7 7 6 4 3 1 0 1 0 1 2 3 0 4 6 4 4 9 11 12 13 13 11 9 7 5 4 2 1 3 4 6 8 10 13 15 16 18 19 19 19 19 18 17 16 15 15 14 13 12 11 10 10 10 11 12 12 12 11 13 14 14 14 13 14 14 15 15 16 15 16
4 8 8 9 8 5 5 5 7 9 5 2 3 7 8 6 7 6 5 3 0 1 3 2 1 2 3 0 3 3 2 5 10 10 11 12 10 10 9 8 7 6 5 4 3 2 2 5 8 12 14 15 17 18 19 19 18 17 16 15 14 14 13 12 12 12 11 11 11 11 12 13 15 14 15 15 15 15 14 14 15 15 15 15 16 17
2 10 12 11 7 6 5 4 10 11 3 2 6 6 4 4 3 3 4 3 2 3 5 3 2 3 3 0 2 1 2 4 6 7 9 10 10 10 10 10 9 8 7 6 5 4 2 3 5 8 11 13 15 16 17 17 17 17 17 16 15 13 12 11 11 12 12 12 11 12 13 15 16 16 17 18 18 18 17 16 16 17 16 15 16 17
1 7 9 7 6 6 6 4 8 8 5 8 9 6 5 4 2 2 1 2 3 5 5 1 1 2 3 2 1 0 1 2 3 5 6 8 9 10 11 12 12 12 10 9 7 6 4 3 4 6 7 9 12 13 14 15 15 15 16 17 16 16 15 13 12 12 12 13 13 13 14 16 18 19 19 19 20 20 19 18 17 17 17 17 17 17
2 6 5 4 5 6 7 5 2 3 6 8 5 5 6 3 2 3 2 2 5 5 2 1 1 3 3 2 2 2 2 4 3 4 5 8 10 11 12 13 13 13 12 12 11 10 7 5 4 4 5 7 9 11 12 13 13 14 15 16 17 17 17 16 14 13 13 14 15 15 16 18 19 19 18 17 17 18 18 17 17 18 18 18 18 18
2 3 1 2 5 7 7 6 3 3 4 4 4 7 7 5 4 4 3 4 4 3 1 2 1 2 1 2 4 3 3 5 5 5 6 8 10 12 14 14 13 13 12 12 12 10 9 7 6 4 5 6 7 9 10 11 12 13 14 16 17 18 18 17 15 13 12 12 13 15 17 20 18 17 17 16 15 16 15 15 16 18 19 19 19 20
4 1 3 2 3 7 9 7 5 4 5 6 5 7 7 5 5 5 4 3 3 2 1 2 1 2 1 3 5 4 3 4 5 7 8 9 11 13 15 16 16 15 14 13 12 10 9 8 7 6 6 6 7 9 10 12 13 14 15 17 18 18 19 18 17 14 11 10 11 12 15 17 16 15 17 17 17 17 16 15 15 16 17 18 19 20
6 3 6 6 3 7 9 6 6 6 6 6 3 3 4 3 4 4 4 4 4 3 2 1 1 2 2 2 3 4 3 4 6 8 9 11 12 12 14 15 16 16 16 16 15 13 11 10 9 7 7 6 7 8 9 11 12 13 14 16 17 18 18 18 18 16 12 10 11 12 13 14 14 15 17 19 18 17 16 16 15 14 15 16 18 19
4 3 3 3 3 8 9 5 6 8 5 3 2 2 3 3 2 2 2 2 3 4 3 1 1 1 1 1 1 3 3 4 6 8 11 13 13 13 14 15 15 15 16 16 16 16 14 12 11 9 8 7 6 7 7 9 10 12 13 15 16 17 17 17 16 14 13 12 12 14 14 15 16 16 17 17 16 16 16 16 15 13 13 14 15 16
3 2 1 2 2 6 8 7 6 5 4 3 3 4 2 1 4 4 2 2 1 4 3 1 0 1 1 2 4 4 3 4 6 8 12 13 13 14 14 13 13 14 15 16 18 18 14 13 13 12 10 8 8 8 8 8 9 11 13 15 16 16 16 15 13 13 14 14 14 16 17 17 19 18 17 16 14 15 15 13 13 14 14 13 13 15
3 2 1 2 5 3 3 8 5 1 4 4 4 6 3 2 2 2 3 2 2 3 2 1 1 3 3 3 6 7 6 6 6 7 12 13 12 12 11 12 12 12 14 15 16 17 13 12 13 13 11 9 9 9 8 8 9 10 12 14 15 15 14 12 11 12 14 15 17 19 20 20 20 19 18 15 11 11 11 10 11 12 13 13 13 14
2 2 1 2 4 2 3 6 5 2 1 2 3 6 4 2 3 2 2 3 4 4 2 1 0 3 5 3 7 11 9 8 8 8 10 10 9 9 9 11 11 11 13 15 15 15 12 10 11 11 10 9 9 9 10 10 11 11 12 14 14 15 14 12 11 11 13 15 17 20 21 22 21 19 17 15 10 8 9 10 10 9 10 11 11 14
0 1 2 0 0 2 2 3 5 5 2 2 4 5 1 1 3 3 2 2 4 4 3 2 0 4 5 2 7 12 11 10 10 8 8 9 9 9 9 10 9 10 13 15 15 14 11 9 9 9 8 9 9 10 12 13 12 11 12 12 12 12 12 11 12 11 12 13 15 18 19 19 18 16 16 17 14 9 9 10 9 9 10 10 12 15
0 0 2 2 1 3 3 2 3 6 5 4 5 5 2 1 1 2 2 1 2 4 4 4 1 4 2 1 6 11 10 10 11 10 8 9 10 9 8 8 8 10 13 13 13 13 12 11 9 7 7 7 7 8 9 11 11 10 11 11 10 9 9 9 10 10 11 11 11 14 14 13 11 11 14 17 16 11 10 10 10 11 12 13 14 17
0 1 2 2 1 2 2 1 1 2 3 3 5 6 5 3 4 5 4 1 1 2 3 4 3 2 2 1 6 10 10 10 13 13 11 10 10 9 8 9 10 11 13 13 12 12 11 9 7 6 6 7 7 8 9 10 11 10 10 10 10 9 9 9 9 10 10 9 7 9 9 7 7 8 11 12 10 11 11 10 10 13 15 15 16 17
1 2 2 2 1 1 1 2 1 1 2 3 1 3 4 3 4 6 5 3 2 2 2 1 2 2 2 1 6 10 12 12 13 15 14 11 10 9 8 9 11 13 14 14 13 12 11 8 6 7 9 11 12 13 13 13 12 11 10 9 9 9 9 8 9 9 9 8 7 6 6 6 7 7 9 9 9 12 14 11 11 15 17 17 18 18
1 1 2 1 1 1 1 3 3 2 3 4 3 2 1 1 1 2 3 4 4 3 3 3 3 1 1 3 8 13 15 14 13 15 15 13 10 9 9 10 12 13 14 14 14 13 11 9 10 12 14 15 15 15 16 15 14 12 10 10 9 9 9 8 8 8 8 8 8 9 8 8 9 10 10 11 11 13 13 12 13 16 17 17 19 19
3 0 2 3 2 2 2 3 3 2 2 2 2 2 1 2 4 4 2 3 3 2 2 4 3 1 2 6 10 13 14 13 13 14 14 12 10 9 11 12 12 14 14 14 14 13 12 12 14 16 16 16 17 18 18 17 16 14 13 13 12 10 9 9 8 8 8 8 8 10 11 10 11 12 11 11 12 12 12 12 13 16 18 18 19 21
4 1 1 3 4 4 3 3 2 2 2 2 2 2 3 3 3 3 3 3 4 3 2 3 3 3 5 9 10 10 11 11 12 12 11 11 11 10 11 12 13 15 15 14 14 13 12 14 15 15 16 16 18 20 20 20 19 18 16 15 14 13 11 11 10 9 9 8 7 8 10 11 11 11 9 9 9 10 11 13 14 16 18 19 20 21
4 3 3 3 3 3 1 1 2 1 2 3 2 3 4 3 2 2 3 3 4 5 2 2 5 8 10 10 11 10 10 10 10 11 11 10 10 11 11 11 12 14 15 14 13 13 13 13 14 14 15 16 17 19 20 20 21 21 19 17 17 15 14 14 13 12 11 8 6 6 7 8 8 9 8 8 8 9 11 12 13 15 17 18 19 21
3 3 4 8 8 4 3 2 3 3 4 4 3 3 3 4 2 2 3 3 5 7 3 3 9 13 13 12 12 10 9 10 10 11 11 9 10 11 10 10 11 13 15 15 13 13 14 13 13 13 14 15 16 17 19 20 22 23 21 18 17 17 16 16 15 13 12 11 9 6 5 5 6 6 6 7 9 10 10 12 14 15 16 17 19 21
4 3 3 6 9 8 6 4 4 7 8 7 7 6 5 5 3 2 3 1 2 2 3 9 14 11 10 12 11 9 9 10 10 11 11 10 10 10 10 12 13 13 15 16 14 14 14 13 13 13 14 15 16 16 19 21 23 24 23 20 19 18 18 18 16 15 13 11 10 9 7 5 4 4 4 5 7 9 10 12 14 15 16 18 20 21
2 4 4 6 9 10 9 6 5 7 8 9 10 8 7 7 6 6 5 3 3 2 3 14 14 6 4 8 9 10 10 11 11 11 11 10 9 9 10 13 14 13 15 16 16 15 15 13 12 12 14 15 17 18 19 21 23 24 25 23 21 19 19 19 18 17 16 13 11 10 8 7 5 2 3 4 6 8 9 12 14 15 16 18 19 20
1 3 3 4 6 8 8 7 7 7 9 10 10 9 8 9 9 8 6 4 4 4 8 14 13 5 3 7 11 12 11 12 12 12 11 9 8 9 10 12 13 13 15 16 16 15 14 13 12 12 14 16 18 18 19 21 22 23 25 25 23 21 19 19 19 19 18 16 14 12 9 8 7 4 2 2 4 6 8 11 13 14 16 17 17 18
2 4 2 2 3 4 5 6 6 6 9 11 9 8 8 7 6 6 5 4 3 8 14 12 8 5 6 9 12 12 12 13 12 11 11 9 8 9 11 12 13 13 15 16 16 16 15 14 14 14 15 17 17 18 18 20 21 23 25 26 25 22 19 19 20 20 21 20 18 15 12 10 10 7 3 4 4 4 6 9 11 12 13 14 14 16
2 5 3 1 3 3 1 1 1 1 5 6 4 5 5 5 4 4 4 6 4 4 9 6 3 6 10 11 10 10 11 12 11 10 10 9 9 10 12 13 13 13 15 16 16 16 16 15 14 15 15 16 16 17 18 19 20 22 24 24 24 22 19 18 20 20 21 21 20 19 16 13 11 9 6 7 7 4 4 7 8 8 11 12 13 16
2 5 3 1 3 4 2 2 1 4 4 2 1 3 3 3 2 4 4 5 6 3 5 4 6 10 11 10 10 11 11 11 11 10 9 9 10 11 13 14 14 14 16 15 14 15 16 14 14 14 14 14 15 16 17 17 19 22 24 23 22 22 20 17 17 19 20 21 22 22 20 16 13 11 8 7 7 5 3 5 5 6 10 12 14 16
4 5 3 2 3 4 2 2 3 4 1 1 2 2 2 1 4 7 7 5 5 6 9 9 9 10 10 11 13 15 16 15 13 12 11 11 12 12 13 15 15 15 16 15 13 14 15 14 13 13 13 13 14 15 15 16 19 22 24 22 22 22 21 17 16 17 19 21 23 24 23 21 17 13 10 7 6 5 4 4 4 5 8 10 14 17
5 5 3 3 3 3 3 2 3 1 1 1 1 1 1 3 5 6 5 4 4 5 8 10 9 9 13 14 15 16 19 19 17 14 11 12 13 13 14 16 16 15 15 14 13 13 14 14 14 13 13 13 14 14 14 15 18 21 22 21 21 23 22 20 18 18 18 20 23 24 24 23 20 17 14 9 5 4 6 5 2 4 6 7 12 15
5 5 4 3 1 1 3 3 2 0 2 2 2 2 2 2 3 2 1 2 3 4 8 11 11 10 13 14 15 18 19 18 15 12 11 11 12 14 15 15 15 15 14 14 13 13 12 13 13 13 12 13 13 13 13 14 16 18 18 19 22 23 23 23 23 22 21 20 21 22 22 21 21 19 16 12 9 7 6 5 3 3 5 3 5 11
3 2 3 3 0 1 3 4 2 2 3 3 4 4 3 3 2 1 0 1 4 7 10 13 13 12 13 14 16 16 14 10 7 7 9 11 12 14 15 14 14 14 13 13 12 11 11 11 13 12 12 13 13 13 13 14 16 17 16 19 23 24 25 26 26 25 24 22 20 20 20 21 21 19 16 12 10 9 7 4 2 2 4 3 2 8
7 4 3 4 2 2 4 4 4 3 1 2 5 5 3 2 2 1 1 2 5 10 13 14 15 15 15 15 14 11 6 3 3 5 9 12 13 15 15 15 14 14 13 12 11 10 10 12 12 11 12 14 14 13 13 14 15 16 17 21 23 25 27 28 27 26 25 23 20 18 18 19 21 20 17 12 9 9 8 7 5 2 1 4 2 10
6 4 2 4 4 3 4 2 2 2 1 2 5 4 2 1 2 2 2 1 5 11 14 15 16 17 16 14 10 4 0 2 7 10 12 14 14 14 15 15 15 14 14 13 13 12 13 13 12 13 14 15 14 13 13 13 14 16 19 22 23 26 28 27 25 24 23 22 20 18 16 17 19 20 18 13 11 10 8 7 7 7 6 4 5 12
3 3 2 3 3 3 3 2 1 0 1 2 4 3 2 2 3 3 1 2 8 12 13 15 17 16 14 11 8 6 7 11 17 17 15 14 14 14 15 16 15 15 15 14 14 14 14 14 14 15 16 15 14 13 13 14 15 18 21 22 24 27 27 25 23 22 22 22 21 19 17 16 16 18 18 15 12 10 9 7 6 8 9 6 6 12
2 1 1 2 3 2 2 2 1 0 0 2 3 2 1 3 2 1 2 5 12 15 14 15 17 14 12 13 16 19 20 21 21 18 16 15 15 15 15 14 15 15 15 14 14 14 14 15 15 16 16 16 14 14 14 15 16 18 20 23 25 25 23 22 22 21 21 21 21 21 20 17 14 13 16 16 14 12 11 10 9 9 9 6 6 8
1 2 2 2 2 2 2 2 1 1 2 4 5 3 2 1 1 4 7 11 14 15 16 17 17 15 15 19 23 24 23 22 20 18 18 17 16 15 15 15 15 15 14 14 13 13 13 14 14 15 16 16 15 14 14 14 16 18 20 24 24 22 20 20 21 21 21 22 23 23 22 20 14 10 10 12 13 12 12 12 11 11 11 11 11 10
1 1 1 2 2 1 2 2 1 0 2 3 3 2 1 1 3 6 11 14 15 15 17 18 17 17 20 24 25 23 22 22 20 19 20 18 16 16 16 15 14 14 13 13 13 13 13 13 14 15 16 16 15 15 15 15 16 18 21 23 22 20 19 18 18 20 21 22 24 26 26 24 20 13 8 8 10 11 12 12 11 12 14 14 14 14
1 1 1 2 2 1 2 2 1 1 3 3 1 2 2 4 6 8 12 14 14 15 18 20 19 19 24 27 27 25 23 23 22 21 21 19 17 15 14 13 12 12 12 12 12 12 12 13 14 15 17 17 17 17 17 17 18 19 21 22 21 19 18 18 17 20 22 23 25 26 27 28 27 23 16 9 8 10 12 12 13 14 16 17 17 18
3 2 2 3 5 4 5 5 4 4 5 5 3 3 4 7 10 12 12 13 14 18 21 21 21 24 27 28 28 26 24 24 24 22 21 19 17 15 13 12 12 12 12 11 11 11 11 12 14 16 18 20 20 21 21 20 21 22 22 22 20 20 18 17 18 20 22 23 24 24 26 27 28 29 26 19 13 11 11 11 11 13 15 16 17 17
2 1 2 4 6 4 2 3 4 5 7 7 6 6 7 10 14 14 14 15 18 21 21 21 24 27 28 28 29 28 26 25 24 22 21 20 19 17 15 14 14 13 13 12 11 10 10 12 14 15 17 19 20 21 21 22 22 22 22 21 21 21 19 18 19 20 21 22 22 22 24 25 26 27 28 27 23 21 20 19 18 18 19 18 18 17
3 3 4 5 4 2 3 5 7 8 9 7 7 8 10 13 15 16 17 19 22 22 21 23 26 27 27 27 29 29 26 24 23 23 22 21 20 18 15 14 14 14 13 12 12 12 12 13 14 15 16 17 18 18 18 20 21 21 20 20 21 21 21 22 23 24 24 24 23 23 24 24 23 24 25 25 25 25 25 24 24 26 28 27 24 23
4 5 5 6 7 5 5 8 10 10 8 7 7 9 11 15 18 19 20 22 23 24 25 25 25 25 26 26 26 26 25 24 23 23 23 22 20 18 16 14 14 14 13 12 12 13 14 15 15 15 16 15 15 15 16 18 19 19 20 20 20 20 21 23 25 26 27 27 27 27 27 26 24 24 23 23 22 22 22 22 22 23 26 26 25 24
4 6 6 7 6 4 5 9 9 7 6 7 10 12 13 17 22 24 25 25 25 26 27 27 25 24 24 23 23 24 26 25 23 23 23 22 20 18 16 15 15 15 14 13 12 13 15 16 15 15 15 14 14 14 15 16 17 18 19 19 19 19 19 21 23 25 26 27 28 28 28 28 27 26 25 25 23 22 21 21 19 19 19 20 20 19
2 6 6 5 4 5 10 13 11 9 10 12 13 14 15 19 24 26 26 27 27 27 27 27 27 26 24 23 23 25 26 24 22 22 22 20 18 17 16 15 15 15 15 14 13 13 14 15 15 14 14 13 13 13 14 15 16 17 17 18 18 17 17 18 20 22 24 26 27 27 28 28 29 28 28 27 26 24 23 21 21 20 20 19 18 17
Wind_Direction
179 168 182 186 173 169 173 181 171 141 151 139 132 143 135 150 157 188 231 58 58 218 154 187 175 58 356 339 348 338 254 221 236 258 253 222 218 225 224 224 227 228 233 234 234 240 237 210 195 199 210 224 234 241 246 251 255 258 264 269 270 271 271 267 261 256 260 260 248 244 246 243 240 234 231 232 227 230 241 244 247 250 241 242 245 245
187 190 185 174 161 162 169 167 139 119 132 123 133 138 130 176 160 173 254 46 13 266 120 184 89 57 19 8 358 350 42 88 306 243 220 227 227 230 234 237 235 236 243 245 247 248 244 221 204 202 212 228 238 245 250 255 260 262 264 267 268 267 267 270 271 264 262 260 255 259 257 249 243 234 231 239 239 240 249 249 245 247 243 243 246 247
186 198 186 166 141 120 120 149 141 126 133 121 134 151 159 176 165 232 243 33 1 347 124 113 84 58 12 3 11 14 33 32 35 71 77 196 229 233 238 240 236 237 244 249 254 253 250 237 219 210 218 231 238 244 249 255 262 265 267 271 272 269 265 266 269 267 266 264 264 269 265 252 245 239 235 243 254 257 258 258 250 250 252 251 249 249
185 200 178 153 137 121 111 149 141 121 132 130 145 168 171 162 184 187 163 102 44 30 88 120 96 68 21 2 27 27 20 10 51 72 63 61 72 239 242 246 241 241 250 254 257 258 253 241 230 221 225 234 239 245 250 254 261 267 271 277 279 278 277 281 283 276 273 274 269 267 265 254 243 241 239 240 249 252 254 258 254 251 255 256 253 250
174 175 151 142 151 145 132 149 150 145 156 162 176 179 167 171 198 170 141 219 162 77 94 144 119 75 20 1 28 19 1 3 44 59 50 47 49 57 232 254 253 252 261 262 259 260 256 244 234 228 230 238 242 247 252 255 262 268 274 280 283 284 281 285 290 290 289 286 275 269 268 257 239 238 240 238 238 241 247 253 253 253 254 255 255 250
167 146 145 146 160 153 140 155 173 171 164 181 216 203 181 180 192 138 79 302 175 146 127 203 177 111 11 348 32 3 350 23 47 52 44 37 39 44 46 336 264 261 267 264 259 261 261 251 234 224 227 238 243 249 254 258 263 268 274 279 283 287 284 282 284 283 283 282 279 280 278 260 238 238 243 244 246 256 264 263 257 253 253 253 255 250
133 145 153 151 155 154 152 164 181 179 167 183 206 191 177 171 170 159 150 182 197 169 112 298 232 147 62 338 12 347 340 34 48 49 42 35 34 31 25 22 17 337 285 267 263 263 266 258 238 220 220 231 242 249 254 259 263 267 270 273 278 284 286 286 285 280 277 274 274 279 279 267 248 242 247 251 257 266 274 272 259 249 246 247 249 247
129 150 157 151 153 159 168 170 177 177 169 178 180 171 170 164 168 171 171 194 223 296 159 332 282 144 139 83 355 331 315 27 42 41 38 35 32 26 21 22 31 35 39 16 298 288 281 267 242 223 221 231 241 248 254 259 263 267 270 273 279 285 290 295 293 288 281 272 268 269 271 267 258 246 245 251 257 264 269 268 258 246 240 240 240 241
141 170 167 156 160 176 182 168 167 168 169 196 165 165 170 158 165 172 173 189 19 268 209 165 179 169 142 347 334 327 322 38 37 36 39 39 33 32 32 33 43 45 43 48 31 355 309 280 252 232 230 235 242 249 257 262 267 271 275 281 286 290 295 300 301 297 289 279 271 268 268 267 265 258 252 251 254 259 264 267 261 249 240 237 234 233
169 189 175 160 167 186 182 157 164 169 173 148 130 123 118 91 107 149 171 166 127 229 222 172 188 196 141 193 288 356 65 45 38 43 48 45 43 42 43 44 50 51 49 51 50 40 22 325 288 256 244 244 249 257 265 271 275 278 282 287 292 297 300 302 303 298 291 284 276 271 271 271 270 267 263 259 255 255 259 264 263 253 243 239 235 230
64 176 174 173 181 175 155 134 166 171 137 127 125 113 105 91 97 103 95 145 155 210 228 183 267 232 172 166 236 290 52 56 54 57 54 50 51 49 51 55 55 58 59 61 62 52 31 0 323 291 271 264 264 269 275 280 283 287 291 294 297 302 306 311 311 305 295 286 281 278 277 277 277 274 269 263 259 255 256 261 264 256 246 241 238 233
64 141 164 198 182 149 125 115 133 136 128 132 135 141 134 127 145 119 100 170 187 200 216 10 309 234 202 158 167 180 71 69 61 58 59 56 58 57 58 60 58 59 60 61 66 64 57 48 22 330 301 288 282 282 285 289 291 294 298 300 302 304 309 316 318 313 303 291 284 281 282 283 280 275 267 260 259 258 256 260 265 258 247 242 238 233
158 155 232 216 170 160 139 124 108 115 159 166 148 161 163 156 163 163 160 173 190 191 55 7 262 221 203 100 141 150 78 63 54 65 73 66 66 64 61 61 60 58 57 55 55 54 52 46 31 3 331 309 301 299 297 298 297 300 303 303 305 307 312 318 320 318 308 295 286 280 281 282 276 268 263 258 258 260 261 264 266 258 248 246 241 233
176 230 260 199 168 178 163 147 146 156 187 189 167 172 177 165 164 170 162 155 180 175 40 344 261 205 138 112 142 146 84 62 65 77 82 78 76 71 67 65 61 58 58 58 53 50 50 42 31 12 348 325 313 307 302 302 301 301 301 300 301 304 309 315 319 320 313 300 289 280 281 282 275 266 264 263 263 263 267 271 268 261 254 251 247 239
179 205 203 186 175 176 171 166 156 149 170 183 171 175 181 178 177 173 161 156 157 135 95 119 205 201 153 113 147 147 103 77 86 91 87 82 78 72 68 60 54 55 59 61 59 55 54 50 42 27 7 346 329 317 306 302 299 298 297 294 295 297 301 307 311 312 306 295 289 284 285 290 287 278 271 270 268 265 270 276 269 262 261 257 250 243
183 219 194 165 160 170 170 165 135 131 149 175 151 164 200 194 145 119 106 103 128 122 103 122 272 297 7 13 175 145 117 106 107 99 87 78 71 65 62 57 55 58 62 65 65 61 57 55 50 41 30 16 1 345 323 308 299 294 290 287 289 291 294 299 302 300 291 287 289 286 283 284 282 276 271 270 269 268 273 280 274 263 263 260 249 240
160 192 138 94 164 183 170 158 155 158 148 137 176 185 198 142 111 118 105 36 95 148 119 51 263 158 200 218 177 160 157 137 117 99 87 78 71 67 62 62 66 67 69 69 70 68 61 51 44 40 36 27 16 4 342 322 308 297 290 286 286 287 289 291 292 289 284 282 283 279 274 272 269 266 265 263 268 277 281 290 288 271 260 254 244 236
176 165 129 154 179 197 143 134 129 138 133 132 183 171 129 79 79 109 129 113 166 153 111 31 186 182 195 171 156 175 190 161 134 105 92 82 77 74 65 66 69 70 77 79 78 75 61 40 35 36 34 27 22 16 360 344 333 325 320 314 308 303 300 298 294 289 286 284 280 274 268 267 266 264 262 260 270 292 298 302 298 275 256 250 242 231
191 151 131 204 171 123 112 133 112 66 101 94 156 151 135 169 177 151 143 162 162 136 112 112 258 224 218 182 169 184 186 161 138 109 98 88 79 75 67 68 70 70 78 82 81 74 57 44 46 49 51 45 30 15 2 355 354 351 343 335 326 319 313 307 302 296 295 296 291 282 271 267 270 268 263 260 263 292 295 281 279 263 243 240 232 219
238 154 138 215 178 122 131 168 166 165 144 48 125 146 141 212 171 162 140 163 164 140 126 125 57 243 225 197 181 181 173 155 133 108 102 94 81 77 69 66 68 70 73 73 75 73 64 60 58 50 47 37 18 3 355 354 356 353 344 339 338 332 321 311 306 302 302 302 302 295 281 272 274 271 265 260 254 266 281 265 257 244 225 214 209 209
2 122 124 107 217 185 160 184 188 171 158 145 156 168 176 81 118 135 102 58 159 152 140 136 187 237 215 95 174 170 159 147 129 116 110 96 86 80 74 73 69 68 72 72 74 77 75 68 58 42 24 8 354 348 348 347 344 340 336 339 344 344 337 324 313 308 308 308 310 307 289 268 264 264 263 259 250 253 268 261 248 233 214 200 200 205
138 133 133 114 146 165 137 120 210 209 185 160 173 180 171 143 145 160 161 110 70 125 144 154 185 197 75 83 175 159 141 136 130 121 113 98 91 84 81 89 83 76 81 85 84 83 78 67 57 43 16 4 4 5 2 354 342 338 341 344 345 347 346 337 324 315 311 308 312 318 302 266 252 257 264 262 244 241 255 259 245 224 208 199 200 202
121 105 108 78 89 117 39 71 102 202 161 106 109 172 157 147 163 173 177 162 122 100 118 155 176 133 65 150 159 138 127 131 128 119 112 104 98 95 95 97 91 86 87 87 84 81 78 68 51 38 27 24 25 20 15 10 1 354 350 349 351 352 348 340 332 323 312 302 297 303 292 268 262 262 265 261 236 234 247 251 236 218 206 201 201 199
141 79 95 78 9 350 45 80 79 96 137 113 60 54 136 169 139 144 159 152 146 141 138 167 181 172 179 135 123 118 119 120 117 115 116 113 106 104 108 104 96 94 91 86 82 76 70 62 46 40 38 34 28 22 18 17 17 14 7 1 358 355 353 348 338 326 313 300 290 285 278 273 275 272 267 258 238 234 238 233 221 210 203 201 200 197
176 129 132 137 117 95 108 128 127 109 114 102 70 47 40 103 105 104 100 122 152 164 169 183 188 193 146 124 115 116 116 111 108 112 116 116 112 109 110 106 99 96 92 85 81 73 63 57 51 48 46 37 29 25 22 22 24 25 21 13 3 359 4 0 345 330 315 300 286 278 273 271 271 269 262 248 233 225 220 215 212 206 203 203 201 197
143 51 152 166 157 153 152 149 143 130 117 91 71 41 32 75 115 128 123 150 177 165 165 184 167 143 136 129 128 129 121 111 108 107 110 114 115 112 109 105 98 93 89 84 79 73 66 62 59 56 49 40 34 29 25 27 28 27 29 27 19 15 13 6 357 348 333 315 295 277 268 264 263 264 261 244 226 215 209 207 208 206 205 205 203 199
109 50 52 75 109 141 131 49 346 3 125 120 77 39 27 17 356 91 128 165 162 143 166 207 145 151 160 154 148 146 134 128 124 118 117 117 113 112 108 100 92 86 85 84 79 75 72 68 63 58 49 42 40 31 24 26 29 29 33 35 30 24 20 16 12 5 0 356 341 306 282 273 265 263 262 252 232 217 210 208 206 206 207 206 203 201
108 83 66 63 65 53 44 35 354 31 89 100 82 54 20 359 353 123 137 139 135 141 174 194 161 161 172 168 156 150 141 136 136 131 127 121 112 112 107 98 90 84 85 86 80 76 73 68 65 60 50 46 44 33 22 25 30 32 35 35 30 25 23 23 19 11 11 15 10 351 323 301 282 266 260 252 234 219 212 208 205 206 207 204 202 201
107 93 108 94 76 55 46 52 67 84 88 78 72 62 36 21 28 112 115 82 137 167 176 171 170 165 161 158 147 140 138 133 130 126 121 116 110 111 109 101 92 85 84 84 78 73 70 67 67 62 52 49 46 33 24 26 29 31 34 35 32 26 21 21 20 15 11 9 5 0 350 335 308 269 257 251 232 218 213 208 206 208 206 203 202 200
94 89 139 127 84 53 40 47 81 102 98 77 64 57 57 65 70 89 102 79 42 13 142 156 157 136 114 133 122 117 122 117 112 108 103 104 105 105 104 97 88 81 81 82 77 72 68 67 68 63 56 51 44 33 26 26 27 28 30 32 30 25 20 16 14 14 14 12 8 4 359 355 348 301 257 247 226 219 218 212 208 208 206 205 202 197
61 114 158 148 89 51 39 58 83 103 104 87 67 50 57 77 78 78 87 75 65 91 128 141 143 124 89 110 109 112 112 104 100 97 92 93 98 101 95 86 80 77 79 82 81 77 73 70 68 64 59 51 41 32 25 24 26 27 28 27 25 23 18 13 12 13 17 22 19 12 9 6 2 355 313 265 240 234 231 222 217 214 210 209 204 193
61 119 158 184 114 62 40 69 82 95 103 91 65 38 35 58 75 72 67 46 78 131 133 135 148 161 146 121 109 106 102 95 92 90 90 89 91 96 92 84 80 78 79 84 85 82 76 70 64 61 58 50 41 31 23 22 26 27 27 26 24 23 19 17 19 19 20 24 24 19 19 14 8 3 344 333 322 274 242 235 236 232 220 214 206 193
85 131 149 176 116 108 48 54 45 136 129 103 50 14 14 39 76 86 62 30 18 134 142 142 141 137 138 132 117 106 100 95 89 89 94 95 95 95 92 89 84 79 82 84 84 82 76 67 61 57 53 48 41 31 23 23 28 28 27 27 26 26 24 24 25 24 22 23 23 23 22 20 19 18 358 343 344 326 258 247 254 241 223 216 209 200
77 105 110 17 107 140 214 286 245 190 163 134 337 308 318 352 74 104 80 35 20 62 105 90 103 124 136 139 129 120 111 102 97 96 98 103 104 99 95 95 90 85 86 85 83 83 78 69 63 57 52 48 43 36 28 28 33 31 27 27 27 28 29 29 28 27 24 21 20 24 27 26 26 25 9 344 339 343 307 267 266 239 221 218 213 202
100 89 88 45 92 136 202 247 180 174 175 287 275 280 314 39 107 107 91 60 57 90 103 100 106 119 121 118 118 118 114 107 100 94 95 104 109 105 101 98 93 90 90 88 85 84 81 75 67 58 55 53 47 41 36 34 35 31 24 23 27 30 33 36 35 33 29 23 22 26 29 30 29 26 15 353 328 330 324 293 262 228 218 211 205 198
116 111 103 69 73 134 167 172 164 177 321 312 232 226 98 112 126 121 98 74 80 110 120 115 111 112 111 112 116 118 114 105 91 79 80 97 107 108 106 101 97 94 91 86 82 79 76 74 68 60 57 54 47 43 41 38 36 29 19 18 26 32 37 41 43 43 36 27 24 24 25 27 27 24 21 17 359 329 322 313 266 205 209 203 194 186
113 124 117 89 42 158 136 108 89 168 246 217 168 167 161 138 143 150 105 103 123 143 140 131 127 126 122 121 125 126 118 103 83 65 68 87 100 103 101 98 97 94 90 86 81 76 73 72 68 63 58 55 50 46 43 42 39 31 19 19 27 34 39 41 40 40 38 32 27 23 20 22 24 23 23 28 37 32 3 335 306 201 196 218 204 177
72 109 140 126 55 179 138 124 132 185 231 197 152 137 117 117 131 124 33 152 159 165 158 146 139 138 135 134 139 143 134 109 78 64 77 91 100 102 100 98 97 94 91 88 84 79 78 76 71 66 62 61 57 51 46 43 40 33 29 30 32 34 38 39 35 32 31 32 30 22 17 18 20 21 20 25 37 39 36 21 339 221 209 304 330 162
58 53 93 110 111 164 157 150 173 198 255 131 142 138 121 135 160 200 251 216 167 166 162 151 144 144 145 145 149 158 164 140 119 116 110 108 107 107 105 103 100 96 93 91 90 90 89 84 78 74 69 64 59 52 45 42 39 38 40 41 38 36 37 37 34 29 26 28 28 24 17 14 16 19 20 24 34 39 51 67 71 100 252 333 57 139
48 35 64 109 126 156 153 139 176 205 19 106 142 145 147 188 201 201 217 176 154 162 161 151 146 145 145 145 144 147 300 134 140 138 129 122 115 109 106 103 99 98 95 93 93 94 93 88 83 77 71 65 58 50 45 42 44 47 49 47 43 40 38 36 34 30 27 27 27 24 20 16 18 25 30 33 36 46 66 74 72 78 59 32 128 148
40 17 43 115 124 137 146 137 146 150 80 142 158 159 186 205 198 195 196 124 146 157 154 146 143 141 140 139 131 102 90 115 128 131 130 126 117 109 105 102 99 98 96 94 92 91 90 87 82 77 74 69 62 56 52 50 51 53 54 52 48 44 40 36 33 31 30 32 32 29 26 24 24 33 44 50 49 56 75 78 72 80 72 62 135 155
110 76 72 112 112 112 115 103 113 296 87 135 139 137 196 201 184 128 70 124 145 150 144 139 137 134 127 119 117 117 117 121 127 128 127 122 113 107 105 102 100 98 95 92 90 89 88 86 83 80 78 73 66 60 55 53 53 54 55 54 52 47 41 36 35 35 33 34 36 34 31 29 30 38 49 57 62 67 77 80 81 88 88 86 113 138
119 127 133 129 108 98 95 100 146 186 151 139 140 145 191 240 147 115 116 128 138 140 137 135 135 136 129 118 117 121 122 123 124 122 117 112 106 104 102 99 96 93 89 85 80 77 79 78 75 74 72 69 64 57 51 50 53 55 55 54 52 49 44 39 37 37 37 37 40 41 38 34 36 43 50 60 70 76 82 87 89 94 104 113 122 137
38 53 154 176 191 177 144 144 159 87 124 143 149 150 156 130 129 138 137 135 136 137 136 134 134 139 136 127 123 123 121 121 121 118 114 111 109 107 103 97 91 85 79 75 71 69 71 71 69 68 67 65 62 57 52 51 52 55 57 57 54 50 47 43 39 39 42 43 43 45 45 43 44 48 54 72 86 91 95 102 104 107 116 123 128 136
57 40 66 122 132 95 71 101 126 106 122 133 102 60 97 129 146 151 143 136 136 140 139 135 132 135 136 132 128 124 122 123 123 119 116 114 112 109 102 94 88 80 74 71 67 67 70 73 74 73 69 67 66 64 61 58 57 58 60 60 57 54 52 48 44 44 47 47 46 47 47 46 47 50 52 65 96 105 105 113 122 124 126 129 126 123
82 69 35 97 128 113 66 70 92 109 115 118 105 95 117 136 148 152 141 132 137 144 142 138 137 138 137 134 129 125 125 127 126 122 120 118 113 106 99 93 87 80 74 70 65 65 71 77 80 78 75 71 69 68 67 65 64 64 64 62 59 57 56 54 51 50 50 49 49 50 50 48 49 53 55 57 68 82 84 92 109 118 121 124 124 121
142 105 75 110 141 151 94 80 97 110 117 119 119 123 129 137 149 156 148 138 142 146 143 140 141 142 140 137 132 129 129 129 127 124 123 118 111 106 101 96 88 80 74 70 67 70 76 80 81 80 77 72 69 68 67 67 66 65 64 61 58 58 60 62 61 59 57 54 52 52 52 52 53 57 60 61 64 70 74 78 87 93 93 96 102 107
168 156 125 118 123 112 105 116 109 100 106 116 119 125 134 139 146 154 151 145 145 145 142 141 143 143 141 138 135 132 131 130 129 125 120 114 109 107 103 96 86 78 74 73 73 76 78 80 80 79 77 73 69 67 66 66 67 65 63 61 59 58 61 65 66 65 63 60 57 54 54 56 56 58 62 65 67 70 72 74 79 82 79 77 80 85
150 148 134 122 116 99 105 127 119 100 95 107 115 123 135 140 141 143 144 144 144 142 140 141 142 142 141 139 137 134 131 129 127 120 113 110 109 109 106 98 87 77 72 73 76 78 78 77 77 77 75 73 69 67 67 68 68 66 64 63 61 59 59 61 63 64 64 62 60 58 57 58 59 58 60 63 65 69 71 71 72 74 73 71 70 72
146 149 141 135 139 148 157 155 145 117 107 125 128 126 134 140 139 136 137 139 140 140 140 139 138 138 138 137 135 132 129 127 122 114 109 108 107 106 103 98 88 77 71 72 78 82 79 76 75 76 76 76 74 72 72 71 70 67 65 64 63 61 60 60 61 62 63 62 61 60 60 60 61 61 61 61 61 65 71 74 73 71 69 67 65 63
202 177 167 147 137 150 156 155 145 120 119 131 133 127 130 138 137 133 133 135 137 138 139 137 135 133 132 132 132 130 128 126 121 115 111 109 107 106 102 97 88 78 72 72 79 86 85 80 78 77 76 76 76 76 75 74 72 69 65 62 60 60 59 60 61 63 64 63 61 60 61 62 62 63 64 63 61 61 63 66 69 68 64 60 58 56
Height
1482 1484 1485 1483 1484 1486 1488 1489 1489 1490 1491 1492 1494 1495 1495 1495 1495 1496 1495 1496 1497 1496 1499 1500 1499 1499 1500 1499 1499 1498 1498 1500 1501 1502 1503 1503 1503 1503 1504 1504 1506 1508 1511 1511 1511 1512 1514 1515 1517 1518 1519 1519 1520 1520 1521 1522 1523 1524 1525 1526 1527 1527 1528 1528 1529 1530 1531 1531 1532 1533 1533 1534 1535 1536 1537 1538 1538 1539 1540 1543 1545 1545 1546 1546 1545 1545
1481 1482 1481 1480 1481 1483 1486 1488 1490 1491 1492 1492 1493 1495 1498 1497 1493 1494 1495 1496 1497 1495 1499 1501 1499 1501 1503 1502 1501 1499 1498 1500 1501 1501 1502 1502 1502 1503 1504 1505 1507 1509 1510 1510 1511 1513 1514 1515 1516 1518 1519 1519 1519 1520 1521 1522 1523 1523 1524 1525 1526 1526 1526 1527 1528 1529 1530 1531 1531 1532 1533 1534 1535 1535 1537 1537 1538 1539 1540 1541 1544 1544 1544 1544 1544 1544
1482 1481 1479 1479 1481 1483 1487 1489 1489 1491 1492 1493 1494 1495 1496 1496 1495 1494 1495 1496 1497 1495 1497 1499 1500 1505 1506 1504 1503 1502 1501 1501 1502 1501 1500 1501 1501 1502 1503 1505 1507 1509 1509 1510 1511 1512 1514 1515 1516 1517 1518 1518 1519 1520 1520 1521 1522 1523 1524 1524 1524 1525 1525 1526 1527 1529 1530 1531 1531 1531 1532 1533 1534 1535 1536 1537 1538 1539 1539 1540 1541 1542 1542 1542 1542 1542
1482 1479 1477 1480 1481 1483 1488 1491 1489 1491 1493 1494 1495 1495 1496 1497 1495 1493 1494 1497 1498 1497 1497 1498 1500 1505 1506 1504 1504 1503 1504 1503 1502 1502 1500 1501 1501 1502 1504 1505 1507 1508 1509 1510 1510 1511 1513 1514 1516 1517 1518 1518 1518 1519 1519 1521 1522 1522 1523 1523 1523 1524 1525 1525 1526 1528 1529 1530 1531 1531 1532 1532 1533 1534 1535 1536 1538 1539 1538 1538 1539 1539 1540 1540 1541 1541
1476 1474 1475 1479 1480 1481 1486 1491 1489 1489 1494 1496 1495 1493 1494 1496 1493 1491 1494 1496 1497 1499 1499 1497 1498 1505 1507 1506 1506 1504 1504 1504 1502 1502 1501 1501 1502 1502 1504 1505 1506 1508 1508 1509 1510 1511 1512 1514 1516 1517 1518 1518 1518 1518 1519 1520 1521 1521 1522 1522 1522 1523 1524 1525 1526 1527 1528 1529 1530 1531 1531 1532 1533 1533 1534 1535 1537 1537 1537 1537 1537 1538 1538 1538 1539 1539
1472 1473 1474 1478 1480 1480 1483 1488 1487 1485 1491 1496 1495 1491 1491 1491 1490 1492 1495 1495 1495 1498 1500 1497 1500 1508 1509 1507 1508 1507 1505 1505 1502 1501 1501 1502 1502 1502 1504 1505 1506 1507 1507 1509 1510 1510 1512 1514 1515 1517 1518 1518 1518 1518 1518 1519 1520 1521 1521 1521 1521 1522 1523 1524 1525 1526 1527 1528 1529 1530 1531 1531 1532 1533 1533 1535 1536 1537 1537 1536 1536 1537 1537 1537 1537 1537
1472 1473 1474 1476 1479 1480 1482 1484 1485 1485 1489 1493 1490 1488 1490 1490 1490 1493 1494 1494 1495 1497 1500 1499 1499 1508 1510 1506 1507 1509 1507 1505 1502 1501 1501 1502 1503 1504 1505 1506 1506 1506 1507 1508 1509 1510 1512 1513 1515 1516 1517 1517 1517 1518 1518 1518 1519 1519 1520 1520 1520 1521 1522 1523 1524 1525 1525 1527 1528 1529 1530 1531 1532 1533 1533 1534 1534 1535 1535 1535 1535 1535 1536 1536 1536 1536
1471 1474 1475 1476 1477 1480 1481 1482 1484 1484 1487 1489 1486 1487 1490 1490 1491 1493 1492 1493 1495 1496 1499 1497 1495 1502 1508 1506 1507 1510 1508 1504 1502 1502 1503 1504 1505 1506 1507 1507 1507 1507 1508 1508 1509 1510 1512 1513 1514 1516 1516 1517 1517 1517 1517 1517 1517 1518 1518 1519 1519 1520 1520 1522 1523 1523 1524 1525 1526 1528 1529 1530 1531 1532 1532 1532 1533 1533 1533 1533 1534 1534 1535 1535 1535 1536
1468 1472 1474 1474 1477 1479 1478 1478 1481 1482 1484 1485 1484 1487 1489 1488 1490 1491 1491 1494 1497 1498 1497 1496 1494 1500 1508 1507 1506 1509 1507 1505 1505 1504 1505 1507 1508 1509 1509 1509 1508 1508 1509 1509 1509 1510 1511 1513 1514 1515 1516 1516 1516 1516 1516 1516 1516 1517 1517 1517 1518 1519 1520 1521 1521 1522 1523 1524 1525 1526 1527 1528 1529 1530 1530 1531 1531 1531 1531 1531 1532 1532 1533 1534 1534 1534
1467 1467 1468 1470 1473 1475 1475 1476 1478 1479 1481 1482 1484 1489 1489 1491 1494 1493 1493 1494 1498 1502 1497 1494 1495 1498 1508 1511 1507 1507 1509 1509 1508 1506 1507 1509 1510 1510 1510 1510 1509 1509 1509 1510 1510 1511 1512 1513 1513 1515 1515 1515 1516 1515 1515 1515 1516 1516 1516 1516 1517 1518 1519 1520 1520 1521 1521 1522 1523 1524 1525 1526 1527 1527 1528 1528 1529 1529 1529 1529 1530 1530 1530 1531 1532 1532
1465 1465 1467 1468 1468 1469 1472 1476 1477 1477 1479 1480 1484 1489 1491 1495 1495 1495 1497 1494 1500 1506 1497 1495 1498 1496 1503 1512 1510 1509 1511 1510 1508 1507 1508 1510 1511 1511 1511 1510 1510 1510 1510 1511 1511 1512 1512 1513 1514 1514 1515 1515 1516 1516 1515 1515 1515 1515 1515 1516 1516 1517 1518 1519 1520 1520 1520 1521 1522 1523 1524 1524 1525 1525 1526 1526 1526 1527 1527 1528 1528 1528 1528 1529 1530 1531
1466 1466 1467 1466 1466 1467 1470 1476 1479 1478 1478 1480 1483 1486 1492 1496 1495 1497 1500 1498 1505 1508 1498 1499 1504 1496 1498 1509 1511 1510 1511 1509 1508 1509 1510 1511 1511 1512 1511 1511 1511 1511 1511 1511 1512 1512 1513 1513 1514 1514 1515 1516 1516 1516 1516 1515 1515 1515 1515 1515 1516 1517 1517 1518 1519 1519 1519 1520 1520 1521 1522 1522 1523 1523 1523 1523 1524 1525 1526 1527 1526 1526 1526 1527 1528 1529
1467 1465 1465 1464 1465 1466 1468 1474 1480 1481 1480 1481 1482 1484 1491 1497 1500 1503 1504 1503 1505 1503 1500 1506 1505 1497 1499 1507 1509 1510 1510 1510 1510 1510 1511 1511 1512 1512 1511 1511 1512 1512 1512 1512 1512 1513 1513 1514 1514 1515 1515 1516 1516 1516 1515 1515 1515 1515 1515 1515 1515 1516 1517 1517 1517 1517 1518 1518 1519 1519 1519 1519 1519 1520 1521 1521 1522 1523 1524 1525 1525 1525 1525 1525 1526 1527
1469 1468 1465 1464 1465 1463 1463 1470 1478 1481 1480 1480 1480 1482 1487 1495 1504 1510 1510 1510 1507 1501 1504 1508 1503 1500 1504 1507 1508 1510 1511 1511 1511 1511 1511 1512 1512 1512 1512 1512 1513 1513 1513 1514 1514 1514 1514 1514 1515 1516 1516 1516 1516 1515 1515 1515 1514 1514 1515 1515 1515 1515 1515 1515 1515 1515 1516 1516 1516 1516 1516 1516 1516 1517 1518 1519 1520 1521 1522 1524 1524 1524 1524 1525 1525 1526
1470 1471 1463 1461 1462 1460 1461 1463 1467 1471 1475 1477 1476 1478 1483 1485 1492 1501 1503 1503 1504 1503 1506 1507 1504 1503 1504 1507 1509 1509 1510 1511 1511 1512 1512 1512 1513 1512 1512 1513 1514 1515 1515 1515 1515 1515 1515 1515 1515 1516 1516 1516 1515 1515 1515 1514 1514 1514 1514 1514 1513 1514 1514 1513 1513 1513 1513 1513 1513 1513 1514 1513 1514 1514 1515 1516 1518 1519 1521 1522 1524 1524 1524 1524 1525 1526
1467 1466 1456 1456 1458 1457 1459 1460 1460 1466 1475 1479 1477 1479 1482 1476 1479 1495 1501 1499 1499 1501 1507 1512 1512 1509 1507 1509 1510 1508 1510 1511 1511 1512 1512 1512 1513 1513 1513 1514 1515 1516 1516 1516 1516 1516 1516 1516 1516 1516 1516 1516 1515 1514 1514 1513 1513 1512 1512 1512 1512 1511 1511 1511 1511 1511 1511 1511 1511 1511 1511 1511 1511 1512 1512 1513 1515 1518 1520 1522 1523 1523 1524 1524 1525 1526
1466 1462 1455 1457 1457 1455 1456 1457 1459 1463 1470 1478 1479 1479 1479 1472 1475 1492 1504 1507 1501 1498 1511 1521 1517 1512 1509 1508 1508 1507 1509 1510 1510 1511 1511 1512 1513 1514 1515 1516 1517 1518 1517 1517 1517 1517 1517 1516 1516 1516 1516 1516 1515 1514 1514 1512 1512 1511 1511 1510 1509 1509 1509 1509 1509 1509 1508 1508 1508 1508 1508 1508 1508 1509 1510 1511 1513 1516 1519 1521 1522 1523 1523 1523 1523 1524
1459 1458 1456 1456 1456 1455 1455 1456 1458 1459 1462 1473 1476 1473 1474 1476 1477 1481 1494 1506 1500 1499 1517 1525 1518 1513 1509 1506 1506 1508 1509 1509 1510 1511 1511 1513 1514 1516 1518 1518 1519 1519 1518 1518 1518 1517 1518 1517 1517 1517 1516 1516 1516 1515 1514 1513 1512 1511 1510 1508 1507 1507 1507 1507 1507 1507 1506 1506 1506 1505 1505 1505 1506 1506 1508 1510 1511 1513 1516 1518 1520 1521 1521 1521 1521 1522
1454 1456 1457 1455 1454 1456 1456 1456 1462 1462 1461 1464 1465 1464 1468 1477 1480 1482 1491 1497 1497 1507 1521 1522 1520 1515 1505 1502 1505 1507 1508 1509 1510 1511 1512 1514 1516 1517 1518 1518 1519 1520 1519 1519 1519 1518 1519 1519 1519 1518 1518 1517 1516 1516 1515 1514 1512 1511 1509 1508 1507 1506 1506 1506 1506 1505 1505 1505 1504 1504 1503 1503 1504 1505 1506 1507 1508 1510 1512 1514 1516 1518 1518 1519 1520 1521
1453 1456 1458 1456 1454 1456 1456 1458 1462 1465 1464 1462 1462 1463 1466 1469 1473 1478 1484 1483 1488 1508 1519 1521 1526 1515 1498 1498 1501 1501 1505 1507 1510 1513 1513 1515 1517 1518 1518 1519 1520 1520 1520 1520 1519 1519 1519 1519 1520 1519 1518 1518 1517 1516 1515 1513 1512 1510 1509 1508 1507 1506 1505 1505 1505 1504 1504 1504 1503 1502 1501 1501 1502 1503 1503 1503 1505 1508 1510 1512 1513 1515 1516 1516 1517 1518
1451 1454 1458 1457 1455 1456 1457 1459 1459 1460 1461 1463 1465 1467 1469 1471 1470 1473 1482 1483 1484 1498 1510 1520 1524 1507 1494 1497 1497 1498 1503 1506 1509 1512 1514 1517 1518 1518 1519 1520 1521 1521 1521 1521 1520 1520 1520 1520 1520 1519 1519 1518 1517 1516 1514 1513 1512 1511 1510 1509 1507 1506 1505 1504 1503 1502 1502 1502 1501 1500 1499 1499 1499 1500 1500 1501 1504 1506 1508 1510 1511 1512 1513 1514 1514 1516
1449 1452 1455 1457 1456 1456 1457 1459 1459 1458 1458 1459 1461 1462 1464 1469 1469 1473 1485 1489 1485 1489 1500 1506 1503 1496 1496 1499 1496 1498 1503 1506 1509 1511 1514 1518 1518 1519 1520 1520 1522 1522 1521 1522 1521 1521 1520 1520 1520 1520 1519 1518 1517 1516 1514 1513 1511 1510 1509 1509 1507 1506 1505 1503 1502 1501 1501 1500 1500 1499 1497 1497 1498 1498 1499 1500 1502 1504 1506 1508 1509 1509 1510 1511 1512 1513
1446 1449 1454 1459 1460 1459 1458 1459 1459 1459 1459 1458 1459 1461 1461 1462 1462 1467 1479 1485 1488 1493 1497 1494 1491 1494 1500 1499 1496 1499 1504 1507 1510 1511 1514 1519 1519 1520 1521 1521 1523 1523 1523 1523 1522 1521 1521 1520 1521 1520 1519 1518 1517 1516 1514 1513 1512 1510 1509 1508 1507 1506 1504 1503 1501 1500 1500 1499 1499 1498 1497 1497 1497 1497 1498 1499 1500 1501 1503 1505 1506 1506 1508 1509 1509 1511
1446 1450 1456 1462 1461 1457 1456 1458 1459 1459 1459 1459 1463 1467 1466 1463 1462 1463 1468 1473 1483 1492 1492 1488 1492 1498 1500 1499 1499 1502 1505 1508 1510 1512 1515 1518 1519 1521 1522 1522 1524 1524 1524 1523 1522 1521 1521 1521 1521 1520 1519 1519 1517 1517 1515 1513 1512 1510 1509 1508 1506 1505 1504 1502 1501 1500 1499 1498 1497 1497 1496 1496 1496 1496 1496 1497 1498 1499 1501 1502 1503 1504 1506 1507 1508 1509
1446 1452 1455 1462 1467 1466 1464 1462 1461 1459 1460 1464 1469 1471 1469 1467 1465 1466 1469 1471 1478 1490 1488 1482 1492 1501 1500 1501 1503 1504 1506 1509 1511 1514 1515 1517 1520 1521 1522 1523 1524 1524 1524 1523 1522 1522 1521 1521 1521 1520 1520 1520 1519 1518 1516 1514 1513 1511 1509 1507 1506 1505 1504 1502 1501 1500 1499 1498 1496 1496 1495 1495 1495 1495 1495 1496 1497 1498 1499 1499 1500 1502 1503 1505 1506 1507
1448 1457 1455 1456 1465 1471 1469 1466 1463 1462 1464 1468 1473 1473 1472 1471 1467 1464 1470 1472 1476 1491 1490 1481 1490 1501 1501 1502 1505 1505 1507 1510 1512 1514 1516 1518 1520 1521 1522 1523 1524 1524 1524 1523 1522 1522 1521 1521 1521 1521 1521 1521 1520 1519 1517 1515 1513 1511 1509 1507 1505 1504 1503 1502 1501 1499 1498 1497 1496 1495 1494 1494 1494 1494 1494 1495 1495 1496 1497 1497 1498 1499 1501 1502 1503 1505
1452 1465 1465 1459 1459 1464 1466 1468 1470 1468 1466 1468 1473 1475 1475 1477 1472 1466 1469 1471 1475 1488 1491 1483 1489 1499 1501 1502 1505 1506 1508 1510 1512 1515 1517 1519 1519 1520 1522 1523 1523 1524 1523 1523 1522 1522 1522 1522 1522 1522 1522 1521 1521 1519 1518 1516 1513 1511 1509 1507 1506 1505 1504 1502 1501 1499 1498 1496 1495 1494 1493 1493 1492 1492 1493 1493 1494 1494 1495 1495 1496 1498 1499 1500 1502 1503
1450 1464 1471 1471 1472 1475 1476 1478 1478 1473 1472 1474 1476 1477 1477 1479 1475 1466 1465 1470 1473 1479 1485 1487 1489 1493 1497 1501 1503 1507 1509 1510 1512 1514 1516 1518 1519 1520 1522 1523 1523 1524 1523 1523 1523 1522 1522 1522 1522 1523 1522 1522 1521 1520 1518 1516 1514 1511 1509 1508 1507 1506 1504 1503 1501 1499 1498 1496 1495 1493 1492 1492 1491 1491 1491 1492 1492 1493 1493 1494 1495 1496 1497 1498 1500 1501
1448 1463 1473 1474 1479 1483 1482 1481 1478 1476 1479 1482 1481 1480 1480 1480 1477 1469 1473 1480 1477 1471 1476 1484 1488 1490 1495 1500 1503 1507 1509 1510 1513 1515 1516 1518 1519 1520 1522 1523 1523 1523 1523 1523 1523 1523 1523 1522 1523 1523 1523 1523 1522 1520 1519 1517 1514 1512 1510 1508 1507 1506 1505 1503 1501 1499 1497 1496 1494 1493 1492 1491 1491 1490 1490 1490 1491 1492 1492 1492 1493 1494 1495 1496 1497 1499
1449 1465 1473 1472 1477 1483 1483 1482 1480 1479 1481 1484 1485 1484 1482 1483 1483 1480 1483 1488 1483 1476 1476 1480 1487 1495 1500 1503 1505 1508 1510 1511 1514 1516 1517 1519 1520 1521 1522 1522 1522 1523 1523 1523 1523 1523 1523 1523 1524 1524 1524 1523 1522 1521 1519 1517 1515 1513 1510 1509 1508 1506 1505 1503 1501 1499 1497 1495 1494 1492 1492 1491 1490 1490 1489 1490 1490 1491 1491 1491 1491 1492 1493 1493 1495 1497
1447 1463 1473 1470 1472 1482 1485 1483 1481 1479 1481 1485 1488 1488 1484 1483 1485 1486 1487 1488 1486 1484 1484 1485 1491 1501 1506 1506 1507 1509 1511 1512 1514 1517 1518 1520 1521 1521 1522 1522 1523 1524 1524 1524 1524 1524 1524 1524 1525 1524 1524 1524 1522 1521 1520 1518 1515 1513 1511 1509 1507 1506 1504 1503 1501 1499 1497 1495 1494 1492 1492 1491 1490 1490 1489 1489 1490 1491 1491 1491 1490 1491 1491 1492 1494 1497
1447 1462 1473 1467 1467 1481 1487 1484 1483 1481 1480 1483 1489 1492 1490 1487 1487 1489 1491 1492 1489 1486 1489 1492 1494 1499 1505 1507 1508 1510 1512 1513 1515 1518 1519 1521 1522 1522 1522 1522 1523 1524 1525 1525 1525 1525 1525 1525 1525 1525 1524 1524 1523 1522 1520 1518 1516 1514 1512 1510 1508 1506 1505 1503 1501 1499 1497 1496 1494 1493 1492 1491 1490 1489 1489 1489 1490 1490 1490 1490 1490 1491 1492 1493 1496 1497
1450 1458 1465 1462 1465 1481 1487 1484 1485 1481 1473 1477 1488 1495 1495 1492 1491 1492 1493 1495 1493 1489 1490 1493 1493 1497 1504 1507 1508 1512 1514 1515 1517 1519 1520 1522 1522 1522 1522 1523 1524 1525 1526 1526 1527 1526 1526 1526 1526 1525 1524 1524 1523 1522 1521 1519 1517 1515 1513 1511 1509 1507 1506 1504 1502 1500 1499 1497 1495 1494 1492 1491 1490 1490 1489 1490 1490 1490 1490 1490 1491 1492 1493 1495 1497 1498
1453 1455 1463 1466 1468 1481 1487 1484 1482 1476 1472 1482 1495 1497 1496 1494 1492 1493 1496 1498 1498 1496 1495 1497 1498 1502 1505 1506 1508 1512 1515 1517 1519 1520 1521 1522 1522 1523 1524 1524 1524 1526 1526 1527 1528 1527 1527 1527 1526 1526 1525 1525 1524 1523 1522 1520 1518 1516 1514 1512 1511 1509 1506 1505 1503 1501 1500 1498 1496 1495 1493 1492 1492 1491 1491 1491 1491 1491 1491 1491 1491 1493 1493 1495 1496 1497
1456 1459 1468 1471 1471 1480 1485 1479 1475 1476 1482 1493 1498 1496 1495 1494 1493 1495 1499 1500 1500 1499 1500 1502 1504 1505 1507 1508 1510 1513 1515 1518 1519 1520 1522 1522 1522 1524 1524 1524 1525 1526 1527 1528 1528 1528 1528 1527 1527 1527 1526 1526 1524 1523 1523 1521 1519 1517 1515 1514 1512 1509 1507 1505 1504 1502 1501 1499 1498 1496 1495 1494 1493 1493 1492 1492 1492 1492 1492 1492 1493 1494 1494 1495 1497 1497
1455 1460 1468 1474 1476 1478 1477 1473 1476 1486 1494 1497 1496 1495 1495 1495 1494 1495 1497 1499 1501 1500 1501 1504 1507 1508 1509 1511 1513 1515 1516 1518 1520 1522 1523 1523 1523 1525 1525 1524 1526 1526 1527 1528 1529 1529 1529 1528 1528 1527 1527 1526 1525 1524 1523 1522 1520 1518 1517 1515 1512 1510 1508 1506 1504 1503 1502 1500 1499 1498 1496 1495 1495 1494 1494 1493 1493 1493 1493 1494 1495 1495 1496 1497 1498 1498
1454 1458 1463 1474 1481 1478 1474 1478 1487 1493 1494 1493 1494 1495 1494 1494 1495 1492 1492 1497 1501 1501 1501 1504 1508 1509 1511 1512 1514 1516 1517 1518 1520 1524 1525 1525 1525 1525 1525 1525 1526 1527 1528 1529 1529 1529 1529 1529 1528 1528 1528 1527 1526 1525 1524 1522 1520 1519 1518 1516 1513 1511 1509 1507 1505 1504 1503 1502 1501 1499 1498 1497 1496 1496 1495 1495 1495 1495 1495 1495 1496 1497 1498 1499 1499 1500
1455 1455 1456 1468 1481 1481 1477 1484 1492 1491 1487 1487 1490 1493 1493 1494 1495 1493 1492 1495 1499 1501 1501 1503 1506 1509 1512 1513 1515 1516 1516 1517 1522 1526 1526 1526 1526 1525 1526 1526 1527 1528 1529 1529 1530 1530 1530 1530 1529 1529 1529 1528 1527 1526 1525 1523 1522 1520 1519 1516 1514 1512 1511 1509 1507 1506 1504 1503 1502 1501 1500 1498 1498 1497 1497 1497 1497 1496 1496 1497 1498 1499 1500 1500 1501 1502
1457 1459 1458 1465 1479 1482 1476 1480 1487 1487 1484 1486 1490 1494 1494 1493 1495 1495 1490 1490 1496 1500 1501 1503 1506 1508 1511 1513 1514 1516 1515 1516 1523 1527 1526 1526 1526 1526 1526 1527 1528 1529 1529 1530 1530 1531 1531 1531 1530 1530 1530 1529 1528 1527 1526 1525 1523 1522 1520 1517 1515 1514 1512 1510 1509 1508 1506 1505 1504 1503 1502 1500 1499 1498 1498 1498 1498 1498 1498 1498 1499 1501 1502 1502 1502 1504
1459 1462 1463 1466 1476 1481 1478 1480 1485 1485 1487 1491 1493 1494 1494 1494 1495 1494 1487 1487 1496 1501 1501 1503 1505 1507 1510 1512 1514 1515 1514 1515 1521 1525 1526 1526 1527 1527 1527 1528 1528 1530 1530 1531 1531 1531 1531 1531 1531 1530 1529 1529 1529 1529 1527 1526 1524 1522 1520 1518 1517 1515 1513 1513 1512 1511 1509 1508 1506 1505 1504 1502 1501 1500 1499 1499 1499 1500 1500 1500 1501 1502 1503 1504 1505 1507
1470 1471 1472 1473 1476 1480 1480 1481 1484 1486 1489 1493 1493 1493 1495 1495 1494 1490 1487 1490 1498 1501 1502 1504 1506 1508 1510 1511 1512 1515 1516 1516 1520 1523 1525 1526 1527 1527 1528 1529 1529 1530 1531 1531 1532 1532 1532 1531 1531 1530 1529 1529 1530 1529 1528 1527 1525 1523 1521 1520 1518 1517 1516 1516 1516 1514 1512 1511 1509 1507 1506 1505 1503 1502 1501 1500 1501 1501 1501 1502 1503 1503 1504 1506 1507 1509
1474 1477 1477 1477 1480 1485 1485 1484 1485 1486 1490 1494 1494 1494 1495 1493 1489 1489 1492 1496 1499 1501 1503 1506 1507 1509 1511 1511 1512 1515 1517 1519 1521 1524 1525 1527 1528 1528 1529 1530 1530 1531 1532 1532 1533 1533 1533 1532 1532 1531 1530 1530 1530 1530 1529 1528 1526 1525 1523 1521 1519 1519 1520 1519 1518 1516 1515 1513 1511 1510 1508 1507 1506 1505 1504 1503 1503 1503 1503 1504 1504 1504 1505 1507 1508 1510
1471 1473 1476 1482 1487 1490 1489 1487 1483 1483 1488 1494 1494 1494 1495 1493 1491 1494 1497 1499 1500 1502 1504 1506 1508 1510 1511 1512 1514 1516 1518 1521 1523 1524 1526 1527 1529 1530 1530 1531 1531 1532 1533 1534 1534 1534 1534 1533 1533 1532 1531 1531 1530 1530 1530 1529 1527 1526 1525 1523 1522 1523 1523 1522 1520 1519 1517 1516 1514 1512 1511 1510 1509 1508 1507 1506 1505 1505 1505 1506 1506 1507 1507 1509 1510 1511
1475 1475 1478 1485 1487 1484 1481 1483 1484 1486 1491 1495 1493 1493 1494 1495 1495 1497 1498 1499 1501 1504 1505 1507 1509 1511 1511 1513 1516 1518 1520 1522 1524 1525 1527 1528 1530 1531 1532 1532 1533 1533 1534 1535 1535 1534 1534 1533 1533 1533 1532 1532 1531 1531 1531 1530 1529 1528 1527 1526 1526 1526 1525 1524 1523 1521 1519 1518 1516 1515 1513 1512 1511 1510 1509 1509 1508 1508 1508 1508 1509 1510 1510 1511 1512 1512
1478 1479 1478 1481 1487 1486 1484 1487 1491 1493 1495 1495 1494 1495 1495 1495 1497 1498 1498 1500 1503 1505 1506 1508 1510 1512 1513 1514 1516 1519 1521 1523 1525 1527 1528 1530 1532 1533 1533 1533 1534 1534 1534 1535 1535 1535 1534 1534 1534 1534 1533 1533 1532 1532 1532 1531 1531 1530 1529 1528 1528 1528 1527 1526 1525 1524 1521 1520 1519 1518 1516 1515 1514 1512 1512 1511 1511 1511 1511 1511 1512 1512 1513 1514 1515 1515
1482 1482 1480 1482 1489 1491 1490 1492 1494 1494 1494 1495 1496 1496 1496 1496 1497 1498 1499 1501 1503 1505 1507 1509 1511 1513 1515 1516 1517 1520 1523 1525 1526 1528 1530 1531 1532 1533 1533 1534 1534 1534 1535 1535 1535 1535 1535 1535 1535 1534 1534 1534 1534 1533 1533 1533 1532 1531 1531 1531 1530 1529 1529 1528 1527 1526 1524 1523 1522 1521 1520 1518 1517 1516 1514 1514 1514 1514 1514 1514 1515 1515 1516 1516 1517 1517
1483 1482 1482 1485 1487 1488 1490 1494 1496 1494 1495 1497 1496 1497 1497 1498 1498 1499 1500 1502 1504 1507 1509 1510 1512 1514 1516 1517 1518 1521 1524 1526 1527 1529 1531 1531 1532 1534 1535 1535 1536 1536 1536 1536 1536 1536 1536 1535 1535 1535 1535 1535 1535 1535 1535 1535 1534 1533 1533 1533 1532 1531 1531 1530 1529 1528 1527 1526 1525 1524 1523 1522 1521 1520 1518 1517 1517 1517 1517 1518 1518 1518 1518 1519 1520 1520
1482 1482 1484 1486 1488 1490 1492 1495 1496 1495 1496 1497 1497 1498 1499 1498 1499 1501 1502 1504 1506 1508 1510 1512 1514 1516 1518 1519 1521 1522 1525 1528 1529 1530 1532 1533 1533 1535 1536 1537 1537 1537 1537 1537 1537 1537 1536 1536 1536 1536 1536 1536 1537 1537 1537 1537 1536 1536 1535 1535 1534 1534 1533 1532 1531 1530 1529 1528 1527 1526 1525 1524 1524 1523 1522 1522 1521 1521 1521 1522 1522 1521 1521 1522 1523 1523
1481 1482 1484 1487 1490 1493 1494 1496 1496 1496 1498 1499 1499 1499 1499 1499 1500 1502 1503 1505 1508 1509 1512 1514 1517 1518 1520 1522 1523 1524 1526 1529 1531 1532 1533 1534 1535 1537 1538 1538 1539 1539 1539 1539 1538 1538 1538 1538 1537 1537 1537 1538 1539 1539 1539 1538 1538 1537 1537 1536 1536 1536 1536 1535 1534 1532 1531 1530 1530 1529 1528 1527 1526 1526 1525 1525 1525 1524 1524 1525 1526 1526 1526 1526 1527 1527
1482 1483 1484 1486 1490 1492 1492 1493 1494 1495 1497 1500 1500 1500 1501 1501 1501 1503 1505 1507 1509 1511 1513 1516 1519 1521 1523 1524 1525 1527 1528 1531 1533 1534 1535 1536 1537 1538 1539 1540 1541 1541 1540 1540 1540 1540 1539 1539 1539 1539 1540 1540 1541 1541 1540 1540 1539 1539 1539 1538 1538 1538 1538 1537 1536 1535 1534 1533 1533 1532 1531 1530 1529 1528 1528 1528 1528 1527 1527 1527 1528 1529 1529 1530 1530 1531
1482 1483 1483 1483 1485 1487 1488 1491 1493 1494 1496 1500 1501 1501 1503 1503 1503 1504 1507 1509 1511 1514 1516 1517 1520 1522 1524 1526 1528 1529 1530 1532 1534 1535 1536 1537 1539 1540 1541 1542 1542 1542 1542 1541 1541 1541 1540 1540 1541 1541 1542 1542 1543 1542 1542 1541 1541 1540 1540 1540 1540 1540 1540 1539 1539 1538 1537 1536 1535 1535 1534 1533 1533 1532 1531 1531 1531 1531 1530 1530 1530 1530 1531 1532 1533 1533